Forside
METAR-TAF:

METAR-TAF

Lufthavne :

Clarion Municipal Airport

Clarion, Iowa, USA

Breddekreds: 42-45N, længdekreds: 093-46W, højde: 354 m

Aktuelle vejr

Denne rapport blev lavet for 11 minutter siden, kl. 07:35 UTC
Vind 6 kt fra syd
Temperatur -1°C
Fugtighed 100%
Tryk 1014 hPa
Sigt: 16.1 km
skyfri

METAR: KCAV 290735Z AUTO 19006KT 10SM CLR M01/M01 A2995 RMK A01

Tid: 01:46 (07:46 UTC)


TAF: fraværende

Vejrobservationer og prognoser fra mere end 4000 lufthavne (METAR og TAF).

De gule og røde prikker repræsenterer de meteorologiske stationer.

Flyt musen over at se navnet på stationen.

Så klik over at se vejr observationer og prognoser.

At skifte det kort: Klik på de grønne knapper med et sort kors for at zoome ind; på den grønne knap med en bindestreg for at zoome ud; eller på de grønne pile for tilstødende kort.


METAR-TAF: